sat.trackr.live / text

‹ back to catalog

STARLINK-4408

NORAD 53206 · 2022-084T

PAYLOAD ACTIVE UNKNOWN

§ Identity

Operator
Country
US
Launch date
2022-07-22
Launch site
AFWTR
Launch vehicle
Mass (kg)
RCS (m²)

Purposes: comms

External: N2YO · Heavens-Above · Gunter

§ Orbital elements

Epoch: 2026-09-20T02:38:06.376128Z

Period
89.87 min
Inclination
97.2726°
Eccentricity
0.0001683
Mean motion
16.02335796 rev/d
Perigee alt
266.8 km
Apogee alt
269.1 km
Semi-major
6,646.1 km
B*
1.4271e-3
RAAN
322.9564°
Arg perigee
49.5703°
Mean anomaly
310.5723°
Rev number
22,896

§ Raw data

STARLINK-44081 53206U 22084T   26263.10979602  .00822481  33218-3  14271-2 0  99972 53206  97.2726 322.9564 0001683  49.5703 310.5723 16.02335796228968

JSON: /api/v1/satellites/53206 · /tle

For live sub-satellite position, see the globe view (requires WebGL).

§ Visibility from observer

Set your observer location to see the next 7 days of passes ≥ 10°. The values pass through the URL so the page stays shareable.

No JS? Fill the form by hand. The geolocation button needs JavaScript.